Other Public Products
Issued by NWS Grand Forks, ND

Home | Current Version | Previous Version | Text Only | Print | Product List | Glossary Off
Versions: 1 2 3 4 5 6 7 8 9 10 11 12 13 14 15 16 17 18 19 20 21 22 23 24 25 26 27 28 29 30 31 32 33 34 35 36 37 38 39 40 41 42 43 44 45 46 47 48 49 50

000
FPUS83 KFGF 161310
OPUFGF
PRAIRIE TO PINES WEATHER ROUNDUP
NATIONAL WEATHER SERVICE EASTERN NORTH DAKOTA/GRAND FORKS ND
800 AM CDT TUE SEP 16 2014

 **SATELLITE DATA USED TO AUGMENT SKY COVER AT AUTOMATED STATIONS**
 *****  WEATHER ACROSS EASTERN NORTH DAKOTA  *****

CITY           SKY/WX    TMP DP  RH WIND       PRES   REMARKS
GRAND FORKS    PTCLDY    44  39  82 CALM      30.04S
GRAND FORKS AF CLEAR     46  41  81 W6        30.04S
GRAND CITY NWS   N/A     46 N/A N/A SW3         N/A
BUXTON         NOT AVBL
DEVILS LAKE    CLEAR     50  37  62 SW10      30.02S
FARGO          CLEAR     45  38  76 S8        30.09S
WAHPETON ARPT  SUNNY     37  34  87 SE3       30.12S
$$

 *****  WEATHER ACROSS CENTRAL AND WESTERN NORTH DAKOTA  *****

CITY           SKY/WX    TMP DP  RH WIND       PRES   REMARKS
JAMESTOWN      CLEAR     40  36  86 S6        30.07R
BISMARCK       CLEAR     42  38  85 NE5       30.06S
MINOT          CLEAR     48  39  71 SW10      30.01S
MINOT AFB      CLEAR     41  39  94 SW7       30.00S
GARRISON         N/A     44  40  85 E3        30.02F
WILLISTON      PTCLDY    34  31  88 CALM      30.02S FOG
DICKINSON      CLEAR     38  35  89 CALM      30.01S
HETTINGER      CLEAR     34  32  92 CALM      30.04S
$$

 *****  OTHER OBSERVATIONS NORTHEAST NORTH DAKOTA  *****

CITY           SKY/WX    TMP DP  RH WIND       PRES   REMARKS
WALHALLA         N/A     50  39  66 SW6       30.00R
LANGDON        FAIR      41  37  87 SW7       30.02S
CAVALIER       FAIR      50  41  71 W9        29.99S
GRAFTON        CLOUDY    48  41  76 MISG      30.01S
CANDO          FAIR      39  37  93 W3        30.03S
FORT TOTTEN      N/A     44  38  79 S3        29.95S
ROLLA          FAIR      45  39  81 SW9       30.02S
RUGBY          FAIR      41  39  93 S5        30.02F
 ***** THE ABOVE OBSERVATIONS ARE NON NWS ARE NOT QUALITY
        CONTROLLED AND MAY MIS-REPORT RAIN FOR SNOW...
$$

 *****  OTHER OBSERVATIONS SOUTHEAST NORTH DAKOTA *****

CITY           SKY/WX    TMP DP  RH WIND       PRES   REMARKS
COOPERSTOWN    NOT AVBL
VALLEY CITY    FAIR      39  39 100 S5        30.08S
OAKES            N/A     37  37 100 CALM      30.10F
GWINNER        SUNNY     43  37  81 SW8       30.12S
BUFFALO        NOT AVBL
WYNDMERE         N/A     39  39 100 SW3         N/A
 ***** THE ABOVE OBSERVATIONS ARE NON NWS ARE NOT QUALITY
       CONTROLLED AND MAY MIS-REPORT RAIN FOR SNOW...
$$

  *****  WEATHER ACROSS NORTHERN MINNESOTA  *****

CITY           SKY/WX    TMP DP  RH WIND       PRES   REMARKS
FLAG ISLAND    CLOUDY    52  41  66 W13       29.95R
WARROAD        CLOUDY    48  43  81 SW9       30.00R
ROSEAU         CLOUDY    52  43  71 SW9       30.00R
HALLOCK        PTCLDY    45  43  93 S7        30.00S
THF RVR FALLS  CLEAR     45  37  76 S8        30.05S
HALSTAD          N/A     41  39  93 S8          N/A
FOSSTON        CLEAR     41  36  81 S9        30.09S
BAUDETTE       CLOUDY    49  40  71 SW8G18    29.99S
WASKISH        PTCLDY    52  43  71 SW8       30.03F
CROOKSTON      CLEAR     43  39  87 S7        30.07S
$$
  *****  WEATHER ACROSS CENTRAL AND WEST MINNESOTA  *****

CITY           SKY/WX    TMP DP  RH WIND       PRES   REMARKS
BEMIDJI        CLEAR     44  38  78 SW5       30.08R
PARK RAPIDS    CLEAR     42  38  85 SW3       30.11S
WADENA         CLEAR     45  37  76 SW6       30.12F
DETROIT LAKES  CLEAR     46  39  76 SW6       30.12S
MOORHEAD       CLEAR     43  41  93 S8        30.11S
FERGUS FALLS   CLEAR     43  36  75 SE5       30.14F
ELBOW LAKE     FAIR      40  38  91 S6        30.13S
MORRIS MN      CLEAR     39  37  93 S6        30.13F
STAPLES        CLEAR     39  37  93 CALM      30.13S
WHEATON        CLEAR     41  36  81 S6        30.14F
$$
  *****  WEATHER ELSEWHERE ACROSS MINNESOTA  *****

CITY           SKY/WX    TMP DP  RH WIND       PRES   REMARKS
DULUTH         MOSUNNY   48  36  63 W15       30.09F
INTRNTL FALLS  CLOUDY    47  42  83 SW8       29.98F
ELY            MOSUNNY   43  37  81 SW8       30.03F
CLOQUET        SUNNY     45  36  70 SW8       30.10F
BRAINERD       SUNNY     40  37  89 S3        30.13F
HIBBING        SUNNY     36  33  89 CALM      30.07F
ALEXANDRIA     CLEAR     45  38  76 SW9       30.15F
SAINT CLOUD    SUNNY     42  39  89 CALM      30.16S
MINNEAPOLIS    SUNNY     44  40  85 CALM      30.19S
$$

  *****  WEATHER ACROSS SOUTH DAKOTA  *****

CITY           SKY/WX    TMP DP  RH WIND       PRES   REMARKS
SIOUX FALLS    CLEAR     45  42  89 S7        30.19S
BROOKINGS      NOT AVBL
WATERTOWN      CLEAR     39  37  92 SE7       30.14F
HURON          CLEAR     42  38  85 S7        30.12F
SISSETON         N/A     51  40  65 SW7       30.10F
ABERDEEN       CLEAR     37  36  96 SE6       30.10F
MITCHELL       CLEAR     43  41  93 SE8       30.15F
PIERRE         CLEAR     47  41  80 SE10      30.03F
MOBRIDGE       CLEAR     46  43  89 SE5       30.02F
RAPID CITY     CLEAR     42  39  89 NW3       30.03F
$$

  *****  SOME WEATHER IN NEARBY STATES *****

CITY           SKY/WX    TMP DP  RH WIND       PRES   REMARKS
GLASGOW MT     CLEAR     46  34  62 E10       30.00R
GREAT FALLS MT MOCLDY    45  35  68 W3        30.01R
CHEYENNE WY    PTCLDY    59  37  44 W16       30.22R
SCOTTSBLUFF NE CLEAR     47  47 100 N5        30.09R FOG
OMAHA NE       FOG       46  44  93 S5        30.25F VSB 1/4
DES MOINES IA  SUNNY     48  44  86 CALM      30.25S
DAVENPORT IA   SUNNY     43  41  93 CALM      30.25R
CHICAGO IL     MOSUNNY   48  43  82 N7        30.21R
EAU CLAIRE WI  SUNNY     43  41  93 SW3       30.19S
LA CROSSE WI   CLOUDY    45  44  97 SE5       30.22S FOG
$$

  *****  SOME NATIONAL WEATHER *****

CITY           SKY/WX    TMP DP  RH WIND       PRES   REMARKS
LA GUARDIA NY  RAIN      60  57  89 N13       30.02R FOG
RALEIGH NC     PTSUNNY   72  67  84 NW5       30.06F
ATLANTA GA     FOG       73  72  94 NW8       30.10F VSB 1
NEW ORLEANS LA MOSUNNY   79  76  90 W3        30.07R
OKLAHOMA CITY  CLOUDY    70  66  87 NW6       30.16R FOG
ALBUQUERQUE NM CLOUDY    66  55  67 E7        30.30R
SALT LAKE CITY PTCLDY    62  44  51 SE7       30.10R
LOS ANGELES CA CLEAR     74  63  68 E5        29.76S
BOISE ID       CLOUDY    68  54  60 E6        29.97R
SEATTLE WA     MOCLDY    58  53  84 S8        29.89F
$$

*** WEATHER ACROSS MANITOBA...SASKATCHEWAN AND ONTARIO ***
                ***ONTARIO***

CITY           SKY/WX    TMP DP  RH WIND       PRES   REMARKS
GERALDTON      PTSUNNY   48  41  76 W9        29.87F
THUNDER BAY    PTSUNNY   46  43  87 W3        29.96F
SIOUX LOOKOUT  LGT RAIN  50  45  81 NW8       29.91R
TORONTO        MOSUNNY   55  45  67 NW13      30.09R
BIG TROUT LK   MOSUNNY   30  28  93 N6        30.01R WCI  24
PICKLE LAKE    PTSUNNY   34  30  86 N8        29.97R
DRYDEN         CLOUDY    48  45  87 W7        29.92S
KENORA         NOT AVBL
$$
                *** MANITOBA***

CITY           SKY/WX    TMP DP  RH WIND       PRES   REMARKS
BRANDON        MOCLDY    43  39  87 CALM      30.00R
DAUPHIN        CLOUDY    45  45 100 N3        30.01S
ISLAND LAKE    PTCLDY    34  25  69 N8        30.11R
PILOT MOUND      N/A     41  37  87 SW5         N/A
THE PAS        LGT RAIN  36  32  87 E9G18     30.08S
THOMPSON       MOCLDY    21  21 100 CALM      30.15S
WINNIPEG       MOCLDY    52  43  71 NW6       29.98R
LYNN LAKE      PTCLDY    25  23  93 MISG      30.14R
CHURCHILL      FLURRIES  34  25  69 N20       30.08S WCI  22
GILLAM         CLEAR     30  27  86 NW16      30.12R WCI  19
$$
                ***SASKATCHEWAN***

CITY           SKY/WX    TMP DP  RH WIND       PRES   REMARKS
ESTEVAN        PTCLDY    39  36  87 CALM      30.01R
KINDERSLEY     PTCLDY    39  36  87 S5        29.94S
LLOYDMINSTER   NOT AVBL
PRINCE ALBERT  NOT AVBL
REGINA         PTCLDY    39  36  87 SE5       29.99S
YORKTON        MOCLDY    45  41  87 VRB3      29.97R


USA.gov is the U.S. government's official web portal to all federal, state and local government web resources and services.